TimeCDT,TemperatureF,Dew PointF,Humidity,Sea Level PressureIn,VisibilityMPH,Wind Direction,Wind SpeedMPH,Gust SpeedMPH,PrecipitationIn,Events,Conditions,WindDirDegrees,DateUTC
12:53 AM,52.0,48.9,89,30.12,10.0,NNW,3.5,-,N/A,,Clear,330,2012-10-09 05:53:00
1:53 AM,52.0,48.9,89,30.11,10.0,Calm,Calm,-,N/A,,Clear,0,2012-10-09 06:53:00
3:53 AM,50.0,46.9,89,30.10,9.0,Calm,Calm,-,N/A,,Clear,0,2012-10-09 08:53:00
4:53 AM,50.0,46.9,89,30.10,9.0,Calm,Calm,-,N/A,,Clear,0,2012-10-09 09:53:00
5:53 AM,48.9,46.0,90,30.12,8.0,NNW,3.5,-,N/A,,Clear,330,2012-10-09 10:53:00
6:53 AM,48.9,46.0,90,30.13,5.0,Calm,Calm,-,N/A,,Clear,0,2012-10-09 11:53:00
7:19 AM,48.2,46.4,93,30.13,6.0,NW,3.5,-,N/A,,Scattered Clouds,320,2012-10-09 12:19:00
7:28 AM,50.0,46.4,87,30.13,7.0,NNW,3.5,-,N/A,,Mostly Cloudy,330,2012-10-09 12:28:00
7:37 AM,50.0,48.2,94,30.14,7.0,Calm,Calm,-,N/A,,Overcast,0,2012-10-09 12:37:00
7:53 AM,52.0,48.9,89,30.14,6.0,Calm,Calm,-,N/A,,Overcast,0,2012-10-09 12:53:00
8:07 AM,51.8,50.0,94,30.14,1.8,Calm,Calm,-,N/A,,Overcast,0,2012-10-09 13:07:00
8:20 AM,51.8,50.0,94,30.14,0.5,North,3.5,-,N/A,Fog,Fog,10,2012-10-09 13:20:00
8:53 AM,54.0,52.0,93,30.15,0.5,North,4.6,-,N/A,Fog,Fog,350,2012-10-09 13:53:00
9:41 AM,55.4,53.6,94,30.16,1.8,Variable,3.5,-,N/A,,Overcast,0,2012-10-09 14:41:00
9:49 AM,57.2,55.4,94,30.16,2.0,NNE,3.5,-,N/A,,Overcast,30,2012-10-09 14:49:00
9:53 AM,57.0,55.0,93,30.16,2.0,Calm,Calm,-,N/A,,Overcast,0,2012-10-09 14:53:00
10:11 AM,57.2,55.4,94,30.17,3.0,Variable,3.5,-,N/A,,Overcast,0,2012-10-09 15:11:00
10:53 AM,61.0,55.9,83,30.16,7.0,Calm,Calm,-,N/A,,Overcast,0,2012-10-09 15:53:00
11:01 AM,60.8,55.4,82,30.16,7.0,Calm,Calm,-,N/A,,Overcast,0,2012-10-09 16:01:00
11:22 AM,62.6,55.4,77,30.16,8.0,Calm,Calm,-,N/A,,Overcast,0,2012-10-09 16:22:00
11:43 AM,64.4,57.2,77,30.15,9.0,NNE,3.5,-,N/A,,Overcast,20,2012-10-09 16:43:00
11:53 AM,66.0,57.0,73,30.14,10.0,Calm,Calm,-,N/A,,Mostly Cloudy,0,2012-10-09 16:53:00
12:09 PM,66.2,55.4,68,30.14,10.0,NNE,4.6,-,N/A,,Scattered Clouds,20,2012-10-09 17:09:00
12:53 PM,71.1,55.9,59,30.11,10.0,NNE,3.5,-,N/A,,Partly Cloudy,30,2012-10-09 17:53:00
1:53 PM,73.0,55.0,53,30.08,10.0,Calm,Calm,-,N/A,,Clear,0,2012-10-09 18:53:00
2:53 PM,73.9,53.1,48,30.07,10.0,Variable,3.5,-,N/A,,Clear,0,2012-10-09 19:53:00
3:53 PM,75.9,52.0,43,30.06,10.0,Variable,4.6,-,N/A,,Clear,0,2012-10-09 20:53:00
4:53 PM,73.9,52.0,46,30.06,10.0,Calm,Calm,-,N/A,,Clear,0,2012-10-09 21:53:00
5:53 PM,70.0,55.9,61,30.06,10.0,Calm,Calm,-,N/A,,Clear,0,2012-10-09 22:53:00
6:53 PM,62.1,57.0,84,30.06,10.0,Calm,Calm,-,N/A,,Clear,0,2012-10-09 23:53:00
7:53 PM,59.0,55.9,90,30.07,8.0,Calm,Calm,-,N/A,,Clear,0,2012-10-10 00:53:00
8:53 PM,57.0,55.0,93,30.09,6.0,Calm,Calm,-,N/A,,Clear,0,2012-10-10 01:53:00
9:53 PM,55.9,53.1,90,30.10,4.0,Calm,Calm,-,N/A,,Clear,0,2012-10-10 02:53:00
10:53 PM,54.0,52.0,93,30.10,4.0,Calm,Calm,-,N/A,,Clear,0,2012-10-10 03:53:00
11:53 PM,53.1,51.1,93,30.09,4.0,Calm,Calm,-,N/A,,Clear,0,2012-10-10 04:53:00